Weather in Kudama

Russia / Republic of Karelia     62°01′18″N   33°08′34″E
temp.,
°C
wind,
m/s
gust,
m/s
humid.,
%
clouds,
%
prec.,
mm/h
press.,
hPa
HPBL,
m
6 august, fri
fri600:00+12ene247098 0.0 101887
03:00+10ene257966 0.0 101895
06:00+11ne29787 0.0 1018201
09:00+14ene387286 0.0 1018434
12:00+19ene574117 0.0 10182332
15:00+21e463313 0.0 10172378
18:00+20e374025 0.0 10162201
21:00+13ene227123 0.0 101741
7 august, sat
sat700:00+10ne26875 0.0 1017115
03:00+11ne311920 0.0 1017361
06:00+12ene4118838 0.0 1017642
09:00+17e5116914 0.0 1016937
12:00+19e61058100 0.0 10151271
15:00+20e61062100 0.0 10151378
18:00+17e61275100 0.0 1014996
21:00+16e61276100 0.1 1014951
8 august, sun
sun800:00+14e61495100 0.8 1013964
03:00+14e61497100 4.9 1012974
06:00+14e51297100 0.0 1012799
09:00+14e51098100 0.9 1012674
12:00+14e41098100 0.5 1012662
15:00+15e4898100 1.4 1013602
18:00+15ene2698100 0.1 1014448
21:00+14ene2699100 0.2 1015293
9 august, mon
mon900:00+13ene249985 0.0 1016198
03:00+13ene129973 0.0 1016100
06:00+13e1298100 0.0 1016101
09:00+16ese2389100 0.0 1016434
12:00+19ese2473100 0.1 1016878
15:00+22sse2356100 0.1 10161396
18:00+20e4773100 0.0 1015409
21:00+17e4118670 0.1 1015326
10 august, tue
tue1000:00+15ese279554 0.1 1015147
03:00+16sse2697100 0.1 1015190
06:00+16ssw279975 0.3 1016344
09:00+16sw3691100 0.3 1017531
12:00+19sw357590 0.0 1018747
15:00+24sw454628 0.1 10172023
18:00+23sw345297 0.0 10171407
21:00+17ssw1277100 0.0 101811